Location: Unspecified
(0.0000°N, 0.0000°E)
Time: 11:27:27
(UTC+00:00)

SEEDS - Pass Details

Date: 01 October 2021
Orbit: 585 x 601 km, 97.6° (Epoch: 15 October)

Event Time Altitude Azimuth Distance (km) Brightness Sun altitude
Rises 04:35:21 0° 358° (N) 2,833 ? -18.6°
Reaches altitude 10° 04:37:36 10° 351° (N) 1,933 ? -18.0°
Maximum altitude 04:41:32 39° 281° (WNW) 896 ? -17.0°
Drops below altitude 10° 04:45:29 10° 212° (SSW) 1,938 ? -16.0°
Sets 04:47:45 0° 204° (SSW) 2,841 ? -15.5°
